STARLINK-35143 (65485 NORAD) Tracking and Keplerian Element Data

This shows tracking and keplerian element data for the satellite.

Feedback or suggestion? Click here.




ElementValue
Catalog65485
NameSTARLINK-35143
Epoch Orbit1778
Epoch Day354.04147215
Epoch Year2025
RAAN267.798
Inclination53.1589
Eccentricity0.0001839
Argument of Perigee33.3059
Mean Anonmoly326.8057
Mean Motion15.30210501
Decay Rate0.0001985
L11 65485U 25195AD 25354.04147215 .00019850 00000+0 68031-3 0 9996
L22 65485 53.1589 267.7980 0001839 33.3059 326.8057 15.30210501 17786



Live tracking and technical data element details for STARLINK-35143 (NORAD 65485). STARLINK-35143 can be tracked NOW for your location showing map with azimuth and elevation plus other details from your city location.







IsCatalogInMostPopularTable: catalog: 65485, numindb: 2
Update: records affected: 1



GetName: 65485 STARLINK-35143

Hit Count: updated at: Tue, 10 Feb 2026 02:26:42 GMT